Weather reports worldwide

Advertisment
Lanzarote Airport (AWS), Spain (60040): temperature & dewpoint: 16.02.2019 01:00:00 - 22.02.2019 01:00:00 (WET)Lanzarote Airport (AWS), Spain (60040): wind speed: 16.02.2019 01:00:00 - 22.02.2019 01:00:00 (WET)Lanzarote Airport (AWS), Spain (60040): wind direction: 16.02.2019 01:00:00 - 22.02.2019 01:00:00 (WET)Lanzarote Airport (AWS), Spain (60040): reduced air pressure: 16.02.2019 01:00:00 - 22.02.2019 01:00:00 (WET)Lanzarote Airport (AWS), Spain (60040): visibility: 16.02.2019 01:00:00 - 22.02.2019 01:00:00 (WET)
Date & Time tt [°C] td [°C] ff [km/h] ff [kn] dd ppp [hPa] vv [km]
22.02.2019 01:00:00 16,0 14,4 13 7 NNE 1022,9 -
22.02.2019 00:00:00 16,3 14,5 15 8 NNE 1023,1 25
21.02.2019 23:00:00 16,3 6,1 8 4 ENE 1022,7 -
21.02.2019 22:00:00 18,6 2,5 11 6 NW 1022,1 -
21.02.2019 21:00:00 16,0 9,9 8 4 NNE 1022,3 25
21.02.2019 20:00:00 17,4 13,7 9 5 NE 1021,6 -
21.02.2019 19:00:00 18,2 14,4 11 6 E 1021,0 -
21.02.2019 18:00:00 19,9 13,2 4 2 E 1020,6 25
21.02.2019 17:00:00 19,6 14,0 11 6 E 1021,1 -
21.02.2019 16:00:00 19,9 13,5 9 5 E 1021,2 -
21.02.2019 15:00:00 20,0 13,7 8 4 ESE 1021,2 40
21.02.2019 14:00:00 19,8 13,9 8 4 ESE 1021,6 -
21.02.2019 13:00:00 20,0 13,6 8 4 E 1022,4 -
21.02.2019 12:00:00 19,7 13,4 9 5 E 1022,9 35
21.02.2019 11:00:00 19,3 13,5 9 5 ESE 1022,7 -
21.02.2019 10:00:00 18,5 13,4 11 6 E 1022,3 -
21.02.2019 09:00:00 17,1 13,0 8 4 E 1021,8 35
21.02.2019 08:00:00 12,3 11,2 11 6 NNE 1021,1 -
21.02.2019 07:00:00 12,2 11,1 11 6 N 1020,6 -
21.02.2019 06:00:00 12,1 10,8 11 6 N 1019,9 25
21.02.2019 05:00:00 12,3 10,9 11 6 N 1019,7 -
21.02.2019 04:00:00 12,5 10,7 13 7 N 1020,0 -
21.02.2019 03:00:00 12,1 10,2 11 6 N 1020,1 -
21.02.2019 02:00:00 13,0 10,7 11 6 N 1020,2 -
21.02.2019 01:00:00 13,4 11,1 15 8 N 1020,5 -
21.02.2019 00:00:00 14,4 11,4 11 6 N 1020,9 30
20.02.2019 23:00:00 14,3 11,4 11 6 N 1021,1 -
20.02.2019 22:00:00 16,6 12,5 11 6 NE 1020,9 -
20.02.2019 21:00:00 17,0 12,9 9 5 NE 1020,4 25
20.02.2019 20:00:00 17,0 13,3 5 3 ENE 1020,2 -
20.02.2019 19:00:00 17,1 13,2 4 2 E 1019,9 -
20.02.2019 18:00:00 17,6 13,3 0 0 N 1019,7 30
20.02.2019 17:00:00 17,5 12,9 5 3 SE 1019,6 -
20.02.2019 16:00:00 17,5 13,0 9 5 E 1019,6 -
20.02.2019 15:00:00 17,5 12,6 8 4 ESE 1019,7 20
20.02.2019 14:00:00 17,5 13,0 11 6 E 1019,7 -
20.02.2019 13:00:00 17,7 13,0 13 7 E 1020,2 -
20.02.2019 12:00:00 18,6 12,8 16 9 E 1020,2 25
20.02.2019 11:00:00 18,8 12,7 18 10 N 1020,6 -
20.02.2019 10:00:00 17,6 12,5 18 10 NNW 1020,6 -
20.02.2019 09:00:00 16,7 12,2 15 8 N 1020,1 30
20.02.2019 08:00:00 14,3 10,9 15 8 NNW 1019,3 -
20.02.2019 07:00:00 14,3 10,9 15 8 NNW 1019,1 -
20.02.2019 06:00:00 14,6 11,0 11 6 N 1018,8 30
20.02.2019 05:00:00 15,3 11,3 11 6 N 1018,7 -
20.02.2019 04:00:00 15,4 12,2 13 7 NNW 1018,9 -
20.02.2019 03:00:00 15,4 11,8 15 8 N 1019,2 -
20.02.2019 02:00:00 15,2 11,2 13 7 NNW 1019,4 -
20.02.2019 01:00:00 14,7 10,3 15 8 NNW 1019,7 -
20.02.2019 00:00:00 15,6 10,0 16 9 N 1020,2 35
19.02.2019 23:00:00 15,3 9,4 15 8 N 1020,6 -
19.02.2019 22:00:00 14,5 8,9 9 5 N 1020,7 -
19.02.2019 21:00:00 14,7 7,5 15 8 NNW 1020,5 35
19.02.2019 20:00:00 15,2 6,9 15 8 N 1019,7 -
19.02.2019 19:00:00 16,1 6,0 24 13 N 1019,4 -
19.02.2019 18:00:00 17,6 7,1 26 14 N 1019,1 35
19.02.2019 17:00:00 18,3 8,0 28 15 N 1018,7 -
19.02.2019 16:00:00 19,8 5,4 28 15 N 1018,4 -
19.02.2019 15:00:00 20,3 7,7 28 15 N 1018,8 35
19.02.2019 14:00:00 20,0 8,1 26 14 N 1019,2 -
19.02.2019 13:00:00 18,7 7,0 31 17 N 1020,3 -
19.02.2019 12:00:00 18,2 7,2 29 16 N 1021,0 30
19.02.2019 11:00:00 17,1 7,2 31 17 N 1021,2 -
19.02.2019 10:00:00 17,9 6,4 28 15 N 1021,0 -
19.02.2019 09:00:00 16,3 5,6 26 14 N 1021,0 25
19.02.2019 08:00:00 14,1 8,1 22 12 N 1020,5 -
19.02.2019 07:00:00 13,0 7,4 16 9 N 1020,0 -
19.02.2019 06:00:00 13,0 8,3 16 9 N 1019,9 25
19.02.2019 05:00:00 13,4 9,3 15 8 N 1020,0 -
19.02.2019 04:00:00 13,8 10,5 18 10 N 1020,5 -
19.02.2019 03:00:00 14,4 8,8 16 9 NNW 1021,0 -
19.02.2019 02:00:00 14,0 8,4 16 9 N 1021,1 -
19.02.2019 01:00:00 14,0 8,8 18 10 N 1021,4 -
19.02.2019 00:00:00 14,2 8,0 16 9 N 1021,8 35
18.02.2019 23:00:00 14,7 7,3 22 12 N 1022,1 -
18.02.2019 22:00:00 14,6 7,6 22 12 N 1022,3 -
18.02.2019 21:00:00 15,0 7,3 18 10 N 1021,8 40
18.02.2019 20:00:00 - - - - - - -
18.02.2019 19:00:00 15,9 8,7 29 16 N 1020,9 -
18.02.2019 18:00:00 16,9 9,3 35 19 N 1020,5 40
18.02.2019 17:00:00 17,9 8,4 35 19 N 1020,3 -
18.02.2019 16:00:00 20,0 7,8 31 17 N 1020,2 -
18.02.2019 15:00:00 20,0 9,3 34 18 N 1020,8 25
18.02.2019 14:00:00 21,1 10,2 37 20 N 1021,2 -
18.02.2019 13:00:00 19,6 10,9 39 21 N 1021,7 -
18.02.2019 12:00:00 18,6 11,4 34 18 N 1022,5 25
18.02.2019 11:00:00 18,9 11,9 34 18 N 1022,5 -
18.02.2019 10:00:00 16,6 14,2 29 16 N 1022,4 -
18.02.2019 09:00:00 17,0 12,2 26 14 N 1022,2 25
18.02.2019 08:00:00 15,5 12,6 15 8 N 1021,7 -
18.02.2019 07:00:00 15,6 11,4 11 6 NNE 1021,5 -
18.02.2019 06:00:00 14,8 11,4 13 7 N 1021,1 20
18.02.2019 05:00:00 14,8 12,8 9 5 NNE 1021,0 -
18.02.2019 04:00:00 16,1 13,4 13 7 N 1021,4 -
18.02.2019 03:00:00 16,5 13,5 11 6 NNW 1021,5 -
18.02.2019 02:00:00 16,6 13,3 15 8 N 1021,9 -
18.02.2019 01:00:00 16,8 13,0 18 10 N 1022,2 -
18.02.2019 00:00:00 16,3 12,5 18 10 NNW 1022,3 20
17.02.2019 23:00:00 16,5 12,8 13 7 N 1022,4 -
17.02.2019 22:00:00 16,9 12,6 18 10 N 1022,3 -
17.02.2019 21:00:00 17,2 12,4 24 13 NNW 1022,1 20
17.02.2019 20:00:00 17,1 12,3 21 11 NNW 1021,8 -
17.02.2019 19:00:00 17,6 12,7 21 11 N 1021,2 -
17.02.2019 18:00:00 20,0 11,4 22 12 N 1020,6 20
17.02.2019 17:00:00 20,1 11,1 18 10 ENE 1020,5 -
17.02.2019 16:00:00 20,8 14,0 16 9 E 1020,6 -
17.02.2019 15:00:00 20,1 13,5 22 12 E 1020,9 13
17.02.2019 14:00:00 20,7 13,6 22 12 E 1021,2 -
17.02.2019 13:00:00 20,9 12,9 22 12 E 1022,1 -
17.02.2019 12:00:00 22,2 6,7 28 15 NE 1022,7 15
17.02.2019 11:00:00 21,7 6,3 26 14 NNE 1022,8 -
17.02.2019 10:00:00 19,8 11,1 31 17 N 1022,8 -
17.02.2019 09:00:00 17,3 12,8 26 14 N 1022,4 20
17.02.2019 08:00:00 14,8 11,8 28 15 N 1022,2 -
17.02.2019 07:00:00 15,2 12,4 28 15 NNW 1021,6 -
17.02.2019 06:00:00 15,1 12,4 24 13 NNW 1020,8 25
17.02.2019 05:00:00 15,2 12,5 24 13 N 1020,9 -
17.02.2019 04:00:00 15,1 12,6 18 10 N 1020,9 -
17.02.2019 03:00:00 15,6 12,7 26 14 NNW 1021,0 -
17.02.2019 02:00:00 15,6 12,6 28 15 NNW 1021,4 -
17.02.2019 01:00:00 15,5 9,8 18 10 N 1021,8 -
17.02.2019 00:00:00 15,3 9,4 16 9 N 1022,1 20
16.02.2019 23:00:00 15,9 9,8 11 6 N 1022,1 -
16.02.2019 22:00:00 16,6 11,3 18 10 NNE 1021,8 -
16.02.2019 21:00:00 16,6 12,9 16 9 N 1021,1 20
16.02.2019 20:00:00 17,4 12,5 24 13 NNE 1020,5 -
16.02.2019 19:00:00 18,4 11,8 22 12 N 1019,9 -
16.02.2019 18:00:00 20,5 8,7 18 10 NNE 1019,0 20
16.02.2019 17:00:00 21,8 8,1 16 9 NE 1018,3 -
16.02.2019 16:00:00 22,5 8,1 21 11 NE 1018,0 -
16.02.2019 15:00:00 22,8 10,1 21 11 NE 1018,1 12
16.02.2019 14:00:00 22,8 8,6 24 13 NE 1018,1 -
16.02.2019 13:00:00 22,6 5,9 26 14 NNE 1018,8 -
16.02.2019 12:00:00 21,8 11,7 34 18 N 1019,0 15
16.02.2019 11:00:00 19,7 13,8 34 18 NW 1018,9 15
16.02.2019 10:00:00 18,1 13,3 26 14 NW 1018,9 -
16.02.2019 09:00:00 16,5 12,3 22 12 NW 1018,6 40
16.02.2019 08:00:00 14,1 10,5 8 4 E 1018,4 -
16.02.2019 07:00:00 13,0 10,2 4 2 N 1018,0 -
16.02.2019 06:00:00 14,2 10,8 8 4 NW 1017,7 30
16.02.2019 05:00:00 14,4 10,7 8 4 SSW 1017,5 -
16.02.2019 04:00:00 14,7 10,9 9 5 SSE 1017,4 -
16.02.2019 03:00:00 13,9 10,5 11 6 WNW 1017,7 -
16.02.2019 02:00:00 14,9 10,9 5 3 W 1017,9 -
16.02.2019 01:00:00 14,8 10,8 18 10 NW 1017,9 -

tt = temperature
td = dewpoint
ff = wind speed
dd = wind direction
ppp = reduced air pressure
vv = visibility

Next stations